Flag for U.S.A. Weather past 2 weeks in Lancaster, California, U.S.A.

Now
97 °F

Sunny.


Feels Like: 93 °F
Forecast: 71 / 99 °F
Wind: 7 mph from North

Location: Lancaster / Fox Field

Current Time: Aug 2, 2015 at 2:11:24 PM

Latest Report: Aug 2, 2015 at 12:56 PM


Visibility: 10 mi

Pressure: 29.85 "Hg (27.57 "Hg at 718m altitude)

Humidity: 16%

Dew point: 43 °F

Location of LancasterLocation

Historic Weather in Lancaster — Graph

°F

Lancaster temperature yesterday

Maximum temperature yesterday: 99 °F (at 1:56 PM)
Minimum temperature yesterday: 67 °F (at 5:56 AM)
Average temperature yesterday: 85 °F

Past Weeks' High & Low Weather Summary

 TemperatureHumidityPressure
High102 °F (Jul 29, 2:56 PM)96% (Jul 20, 1:56 AM)30.13 "Hg (Jul 20, 1:56 AM)
Low60 °F (Jul 28, 4:56 AM)9% (Jul 29, 11:56 AM)29.80 "Hg (Jul 22, 5:56 PM)
Average79 °F45%29.94 "Hg
* Reported Jul 18 12:56 PM — Aug 2 12:56 PM, Lancaster, Weather by CustomWeather, © 2015

Note: Actual official high and low records may vary slightly from our data, if they occured in-between our weather recording intervals... More about our weather records

Advertising

Lancaster weather history for previous 24 hours

 ConditionsComfort  
Time TempWeatherWind HumidityBarometerVisibility
12:56 PM
Sun, Aug 2
97 °FSunny.7 mph16%29.85 "Hg10 mi
11:56 AM95 °FSunny.7 mph17%29.87 "Hg10 mi
10:56 AM92 °FSunny.No wind21%29.89 "Hg10 mi
9:56 AM88 °FSunny.3 mph25%29.90 "Hg10 mi
8:56 AM83 °FSunny.5 mph30%29.91 "Hg10 mi
7:56 AM77 °FSunny.No wind37%29.91 "Hg10 mi
6:56 AM71 °FClear.No wind45%29.90 "Hg10 mi
5:56 AM67 °FClear.5 mph53%29.88 "Hg10 mi
4:56 AM71 °FClear.5 mph47%29.87 "Hg10 mi
3:56 AM74 °FClear.8 mph43%29.86 "Hg10 mi
2:56 AM76 °FClear.10 mph40%29.87 "Hg10 mi
1:56 AM76 °FClear.7 mph40%29.88 "Hg10 mi
12:56 AM79 °FClear.13 mph36%29.88 "Hg10 mi
11:56 PM
Sat, Aug 1
78 °FClear.7 mph32%29.88 "Hg10 mi
10:56 PM78 °FClear.9 mph31%29.89 "Hg10 mi
9:56 PM80 °FClear.9 mph27%29.89 "Hg10 mi
8:56 PM85 °FClear.12 mph20%29.88 "Hg10 mi
7:56 PM86 °FSunny.14 mph25%29.87 "Hg10 mi
6:56 PM91 °FSunny.18 mph21%29.85 "Hg10 mi
5:56 PM94 °FSunny.20 mph20%29.85 "Hg10 mi
4:56 PM98 °FSunny.20 mph16%29.85 "Hg10 mi
3:56 PM99 °FSunny.17 mph14%29.85 "Hg10 mi
2:56 PM99 °FSunny.7 mph11%29.86 "Hg10 mi
Weather by CustomWeather, © 2015

See weather overviewHow to use our weather pages